EHI
0 0 0 0 0 0 0 0 0 0 0 0 0 0 0 0 0 0 0 0 0 0 0 0 0 0 0 0 0 0 0 0 0 0 0 0 0 0 0 0 0 0 0 0
0 0 0 0 0 0 0 0 0 0 0 0 0 0 0 0 0 0 0 0 0 0 0 0 0 0 0 0 0 0 0 0 0 0 0 0 0 0 0 0 0 0 0 0
0 0 0 0 0 0 0 0 0 0 0 0 0 0 0 0 0 0 0 0 0 0 0 0 0 0 0 0 0 0 0 0 0 0 0 0 0 0 0 0 0 0 0 0
0 0 0 0 0 0 0 0 0 0 0 0 0 0 0 0 0 0 0 0 0 0 0 0 0 0 0 0 0 0 0 0 0 0 0 0 0 0 0 0 0 0 0 0
0 0 0 0 0 0 0 0 0 0 0 0 0 0 0 0 0 0 0 0 0 0 0 0 0 0 0 0 0 0 0 0 0 0 0 0 0 0 0 0 0 0 0 0
0 0 0 0 0 0 0 0 0 0 0 0 0 0 0 0 0 0 0 0 0 0 0 0 0 0 0 0 0 0 0 0 0 0 0 0 0 0 0 0 0 0 0 0
0 0 0 0 0 0 0 0 0 0 0 0 0 0 0 0 0 0 0 0 0 0 0 0 0 0 0 0 0 0 0 0 0 0 0 0 0 0 0 0 0 0 0 0
0 0 0 0 0 0 0 0 0 0 0 0 0 0 0 0 0 0 0 0 0 0 0 0 0 0 0 0 0 0 0 0 0 0 0 0 0 0 0 0 0 0 0 0
0 0 0 0 0 0 0 0 0 0 0 0 0 0 0 0 0 0 0 0 0 0 0 0 0 0 0 0 0 0 0 0 0 0 0 0 0 0 0 0 0 0 0 0
0 0 0 0 0 0 0 0 0 0 0 0 0 0 0 0 0 0 0 0 0 0 0 0 0 0 0 0 0 0 0 0 0 0 0 0 0 0 0 0 0 0 0 0
0 0 0 0 0 0 0 0 0 0 0 0 0 0 0 0 0 0 0 0 0 0 0 0 0 0 0 0 0 0 0 0 0 0 0 0 0 0 0 0 0 0 0 0
0 0 0 0 0 0 0 0 0 0 0 0 0 0 0 0 0 0 0 0 0 0 0 0 0 0 0 0 0 0 0 0 0 0 0 0 0 0 0 0 0 0 0 0
0 0 0 0 0 0 0 0 0 0 0 0 0 0 0 0 0 0 0 0 0 0 0 0 0 0 0 0 0 0 0 0 0 0 0 0 0 0 0 0 0 0 0 0
0 0 0 0 0 0 0 0 0 0 0 0 0 0 0 0 0 0 0 0 0 0 0 0 0 0 0 0 0 0 0 0 0 0 0 0 0 0 0 0 0 0 0 0
0 0 0 0 0 0 0 0 0 0 0 0 0 0 0 0 0 0 0 0 0 0 0 0 0 0 0 0 0 0 0 0 0 0 0 0 0 0 0 0 0 0 0 0
0 0 0 0 0 0 0 0 0 0 0 0 0 0 0 0 0 0 0 0 0 0 0 0 0 0 0 0 0 0 0 0 0 0 0 0 0 0 0 0 0 0 0 0
0 0 0 0 0 0 0 0 0 0 0 0 0 0 0 0 0 0 0 0 0 0 0 0 0 0 0 0 0 0 0 0 0 0 0 0 0 0 0 0 0 0 0 0
0 0 0 0 0 0 0 0 0 0 0 0 0 0 0 0 0 0 0 0 0 0 0 0 0 0 0 0 0 0 0 0 0 0 0 0 0 0 0 0 0 0 0 0
0 0 0 0 0 0 0 0 0 0 0 0 0 0 0 0 0 0 0 0 0 0 0 0 0 0 0 0 0 0 0 0 0 0 0 0 0 0 0 0 0 0 0 0
0 0 0 0 0 0 0 0 0 0 0 0 0 0 0 0 0 0 0 0 0 0 0 0 0 0 0 0 0 0 0 0 0 0 0 0 0 0 0 0 0 0 0 0
0 0 0 0 0 0 0 0 0 0 0 0 0 0 0 0 0 0 0 0 0 0 0 0 0 0 0 0 0 0 0 0 0 0 0 0 0 0 0 0 0 0 0 0
0 0 0 0 0 0 0 0 0 0 0 0 0 0 0 0 0 0 0 0 0 0 0 0 0 0 0 0 0 0 0 0 0 0 0 0 0 0 0 0 0 0 0 0
0 0 0 0 0 0 0 0 0 0 0 0 0 0 0 0 0 0 0 0 0 0 0 0 0 0 0 0 0 0 0 0 0 0 0 0 0 0 0 0 0 0 0 0
0 0 0 0 0 0 0 0 0 0 0 0 0 0 0 0 0 0 0 0 0 0 0 0 0 0 0 0 0 0 0 0 0 0 0 0 0 0 0 0 0 0 0 0
0 0 0 0 0 0 0 0 0 0 0 0 0 0 0 0 0 0 0 0 0 0 0 0 0 0 0 0 0 0 0 0 0 0 0 0 0 0 0 0 0 0 0 0
0 0 0 0 0 0 0 0 0 0 0 0 0 0 0 0 0 0 0 0 0 0 0 0 0 0 0 0 0 0 0 0 0 0 0 0 0 0 0 0 0 0 0 0
Wind_Speed
3 5 2 1 2 3 3 3 1 1 1 1 3 6 8 4 3 3 3 3 3 3 2 2 3 3 4 5 5 6 6 6 5 3 3 3 3 3 3 2 3 3 2 2
5 2 1 1 3 4 3 2 0 2 2 0 2 7 7 4 4 4 4 4 3 2 2 3 3 4 4 5 5 5 5 6 5 4 3 2 3 2 2 2 3 3 2 2
4 0 0 3 3 3 2 2 1 1 3 2 3 6 3 1 1 2 2 3 2 2 2 3 3 3 4 5 5 5 6 6 6 5 3 3 2 2 2 3 3 3 3 2
3 2 3 4 2 2 0 1 2 1 2 2 2 4 6 3 3 3 4 3 3 2 1 2 3 4 4 5 5 5 6 6 6 5 3 3 3 3 3 3 3 3 3 2
2 2 3 3 1 2 1 1 2 1 2 2 0 2 8 2 4 5 4 4 4 2 2 2 2 3 4 4 4 4 5 6 6 5 4 3 3 3 3 3 4 4 3 2
1 1 1 1 1 1 2 4 3 3 3 2 3 3 8 4 5 4 3 4 4 3 2 3 2 2 3 4 4 4 5 6 6 5 5 4 4 4 4 4 4 4 3 2
4 3 2 1 2 3 3 4 3 4 3 5 2 4 10 6 5 5 5 5 4 3 2 2 3 3 3 4 4 4 4 5 6 5 5 5 4 4 4 4 4 4 3 3
2 3 2 1 1 1 1 4 4 3 4 5 2 7 9 4 3 3 4 4 3 3 3 3 3 3 3 4 4 4 4 5 5 5 5 5 5 3 3 4 4 4 3 3
1 2 2 0 0 3 2 2 3 3 1 4 6 7 8 2 2 2 2 2 3 4 4 4 4 3 3 3 4 4 4 5 5 5 5 5 5 4 4 4 4 3 3 3
2 1 2 2 1 1 2 4 3 2 1 4 6 5 5 4 4 3 4 4 5 4 3 4 3 3 3 3 3 3 3 4 4 5 5 4 5 5 4 4 4 4 4 4
1 1 3 1 3 4 3 2 2 2 2 2 5 8 5 5 4 5 6 5 5 5 4 4 3 3 3 3 3 3 3 4 4 4 5 5 5 5 4 4 4 4 4 4
1 2 2 4 3 2 3 4 5 3 3 3 3 10 3 4 4 5 6 5 4 4 3 3 3 2 2 3 3 3 3 4 4 4 4 4 5 5 4 4 4 4 4 4
2 2 2 4 2 0 2 3 4 3 2 4 4 10 2 1 3 3 4 4 4 3 3 3 2 2 3 3 3 3 3 4 4 4 4 5 5 5 5 5 4 4 4 4
3 2 4 6 4 3 4 4 5 5 4 5 10 11 8 6 6 5 4 4 4 4 4 3 3 3 3 3 3 3 3 3 3 3 4 4 5 5 5 4 4 4 4 4
3 2 4 6 6 5 6 8 8 10 9 9 9 9 13 8 7 6 5 4 4 5 5 4 4 4 3 3 3 3 3 3 3 3 4 4 5 4 4 4 4 4 4 4
1 2 3 5 4 5 8 11 11 11 10 12 12 15 12 8 5 5 6 5 6 6 6 5 5 4 4 4 4 3 3 3 2 3 4 4 4 4 4 4 4 4 4 4
1 1 2 5 5 5 9 10 11 7 8 8 12 12 6 5 6 7 7 6 7 7 6 6 6 6 5 5 4 4 4 2 2 3 3 4 4 4 4 4 4 4 4 4
4 2 1 4 4 7 8 1 6 7 8 10 9 9 6 7 6 6 6 6 7 6 6 6 5 5 4 4 3 3 2 2 2 2 3 3 3 4 4 4 4 4 3 3
5 4 2 1 4 10 9 3 5 5 7 8 11 10 7 4 3 5 5 5 7 6 6 5 5 4 4 4 3 2 2 2 2 3 3 3 3 3 3 3 4 3 3 3
2 2 2 2 3 8 6 1 2 2 7 5 6 7 4 1 1 5 3 3 4 4 4 4 3 3 3 3 3 3 3 3 3 4 4 3 3 3 3 3 3 3 2 3
3 3 5 6 7 12 7 2 3 2 6 2 4 5 4 6 7 5 3 3 3 3 3 3 3 3 4 3 3 3 3 5 5 3 3 3 3 3 3 3 2 2 3 3
8 7 7 6 7 13 4 6 7 8 3 2 3 4 5 7 6 5 4 4 4 4 3 3 3 4 3 3 4 4 5 5 3 2 2 3 3 3 2 2 2 2 2 2
9 9 7 11 12 6 5 8 6 3 4 4 4 5 5 6 6 6 5 5 4 4 4 3 4 4 3 3 4 5 5 3 2 2 3 3 3 3 2 2 2 2 2 2
6 4 4 8 12 10 9 8 8 7 7 6 6 5 5 7 7 6 6 5 5 4 4 3 3 4 4 4 4 5 4 2 2 3 3 3 3 3 3 2 2 2 2 2
7 5 5 9 11 8 9 10 10 8 6 6 6 6 7 7 8 7 6 6 5 5 4 3 4 5 6 4 4 4 3 2 3 3 3 3 3 3 3 3 3 4 4 4
9 10 10 12 10 8 8 6 5 6 7 7 6 6 6 6 8 7 6 6 5 5 4 4 4 5 5 4 4 4 3 3 3 3 3 3 2 2 3 3 4 6 7 9
Wind_Direction
40 70 85 143 146 147 138 128 150 279 332 32 247 265 273 272 246 251 262 271 273 277 295 341 355 354 353 351 352 346 342 339 341 335 329 322 318 321 324 318 319 314 302 290
59 57 255 122 106 101 108 112 24 336 14 39 294 282 270 251 230 228 236 248 253 282 329 340 350 358 352 343 344 343 342 337 337 326 310 290 288 294 300 309 323 321 316 312
97 259 146 104 95 100 76 150 181 285 350 28 341 308 292 286 258 254 243 234 235 227 265 313 334 340 341 341 339 338 335 335 334 327 319 316 319 316 320 326 324 330 323 308
64 20 79 84 76 117 131 170 152 101 39 323 32 299 288 275 283 256 249 247 245 248 256 295 318 330 327 323 329 333 333 334 333 333 329 321 315 302 301 307 305 315 317 306
44 29 67 74 47 123 164 90 96 92 107 338 324 228 282 300 269 260 251 248 249 244 244 267 283 298 313 323 329 332 334 336 335 335 331 320 308 296 299 308 314 316 313 304
27 8 67 84 45 84 109 67 55 51 63 297 229 192 275 244 230 253 256 255 247 240 250 267 288 311 322 326 328 333 339 336 336 339 337 323 305 302 306 311 313 311 308 306
7 0 6 57 62 36 72 81 33 1 355 258 204 212 251 245 226 225 242 250 242 231 237 266 291 306 310 315 323 330 336 331 334 339 337 327 316 304 295 293 294 296 297 300
57 317 315 19 151 156 111 127 150 205 242 284 259 239 253 246 247 240 239 242 235 237 244 254 263 272 284 298 312 323 327 325 330 333 329 326 320 311 307 301 291 290 286 285
130 274 313 283 210 136 130 147 158 137 235 279 269 277 292 239 260 254 252 249 243 243 245 254 265 269 278 291 300 309 316 319 324 325 323 324 322 317 313 311 306 296 290 289
142 264 295 304 77 30 145 147 114 131 214 280 290 271 257 269 266 271 261 254 254 251 250 259 264 266 273 281 296 306 304 309 315 321 319 321 319 316 312 310 310 306 303 298
110 167 308 333 196 190 147 153 154 153 175 201 285 276 230 221 238 252 257 251 248 248 248 256 266 265 269 283 292 301 307 313 318 320 317 317 316 316 317 313 311 309 306 302
128 122 270 261 255 201 186 188 163 174 224 204 238 270 269 223 246 249 256 256 246 247 252 256 259 263 273 283 292 299 305 310 311 314 315 316 318 320 323 320 316 316 311 307
148 117 347 339 337 281 231 206 184 163 154 189 217 264 286 292 285 272 262 268 265 259 262 263 259 256 262 271 282 290 296 300 310 319 321 324 327 329 326 323 322 322 321 322
123 162 194 220 238 211 232 216 186 172 197 225 232 259 280 287 291 291 276 264 262 258 256 257 258 255 257 261 269 278 290 298 314 324 324 325 324 323 321 323 328 330 329 327
117 229 247 255 259 250 241 235 209 210 214 223 247 251 267 266 257 264 263 256 257 262 263 254 256 258 256 264 274 277 285 299 315 321 320 319 319 323 329 330 331 333 337 334
100 241 292 284 267 256 259 246 227 230 232 241 261 272 268 268 249 254 255 246 251 256 257 256 256 256 252 251 259 269 276 288 304 310 312 317 325 331 336 334 333 337 340 339
182 186 308 285 307 315 269 236 205 206 210 206 233 247 269 276 259 251 247 241 243 250 250 246 246 244 244 242 238 244 255 275 292 298 307 314 320 326 327 331 340 341 340 343
164 166 225 292 335 262 250 212 186 207 233 217 234 255 258 254 266 258 241 237 248 248 248 248 245 244 241 232 232 238 245 255 270 289 301 309 314 317 323 334 339 336 334 340
171 166 203 257 282 280 287 235 178 196 264 220 227 251 266 282 315 286 241 226 235 237 240 242 240 237 227 221 218 214 238 248 264 281 290 298 305 311 320 327 328 328 332 334
130 145 178 206 249 258 262 227 168 126 280 237 202 233 250 127 285 272 269 249 249 248 239 239 238 223 221 223 197 200 233 245 255 263 273 283 294 298 301 304 311 316 320 321
154 182 204 218 245 266 258 198 130 188 256 246 197 217 203 199 222 256 281 268 258 255 251 237 226 225 229 212 187 213 233 245 253 262 272 281 284 283 283 293 301 311 316 325
187 187 199 189 218 254 217 148 190 224 264 242 223 225 223 235 257 271 266 265 266 265 263 243 234 245 237 201 195 226 241 249 254 256 264 273 278 280 289 287 298 309 316 320
209 200 195 201 221 244 197 212 234 238 251 252 241 245 238 247 258 264 263 262 260 253 251 243 235 249 246 215 206 231 248 245 243 253 262 270 276 273 272 266 279 300 307 309
249 206 218 255 261 256 251 252 256 244 242 250 251 256 248 250 259 264 262 260 256 253 245 237 233 243 252 236 226 234 243 224 224 247 260 265 266 274 274 267 260 265 270 278
230 189 222 255 269 283 265 241 243 247 246 250 253 246 241 246 257 254 254 252 248 248 244 227 226 238 248 241 238 240 230 208 226 247 257 263 260 265 271 268 254 255 247 250
202 196 204 239 237 229 256 247 230 235 246 248 253 261 251 237 249 252 250 249 247 246 240 235 236 240 248 241 242 240 221 205 215 243 253 255 260 264 267 278 289 273 269 277